Wind_Speed
82 83 83 84 84 85 86 87 87 87 86 86 86 87 88 89 91 93 94 96 97 99 100 101 102 103 105 106 108 109 111 112 115 117 119 121 122 122 122 123 122 122
80 81 82 83 83 84 85 85 86 85 85 85 86 86 87 88 90 91 93 95 98 100 102 103 104 106 107 109 111 112 114 115 117 119 121 123 123 123 123 122 122 121
79 80 81 82 83 83 84 85 85 85 86 86 86 86 87 88 89 91 93 95 98 101 104 106 108 109 111 112 114 116 117 118 120 121 123 123 123 122 121 120 120 119
78 79 80 80 81 81 82 83 83 85 86 87 87 88 89 90 91 93 95 97 100 104 106 109 111 113 114 116 117 118 119 120 121 122 122 122 121 120 118 117 116 116
78 78 78 79 79 80 82 82 84 86 88 90 91 92 93 94 96 97 99 101 104 107 109 111 113 115 117 118 119 119 120 120 120 120 119 119 118 116 115 113 112 113
78 78 79 80 81 82 84 86 88 90 92 94 96 97 99 100 101 102 103 105 108 110 112 114 115 116 117 118 118 118 118 117 117 117 116 115 114 113 111 110 110 110
80 80 80 82 83 85 87 89 91 94 96 98 99 101 103 105 105 107 108 110 111 113 114 114 115 115 116 116 116 115 115 115 114 114 113 112 112 110 109 108 108 108
82 82 83 84 86 88 89 92 94 97 99 101 102 104 107 108 109 111 112 113 114 114 114 114 114 114 113 113 113 113 113 113 112 112 112 111 110 108 107 107 106 106
85 85 86 87 89 91 93 95 97 100 102 103 105 107 109 111 112 114 114 114 114 114 114 113 113 112 112 112 112 112 112 112 111 111 111 110 109 107 106 105 105 105
87 88 89 91 92 94 96 98 101 103 104 106 108 110 112 113 114 115 115 115 114 114 113 113 112 112 112 112 111 111 111 111 111 111 110 109 107 106 105 104 104 105
90 91 92 94 95 97 99 102 104 106 107 109 111 113 114 114 115 115 115 114 113 113 113 112 112 112 112 112 111 111 110 110 110 110 109 108 106 105 104 104 104 104
93 94 96 97 99 100 102 105 106 108 110 112 114 115 115 115 114 114 114 113 113 113 113 113 113 112 112 111 111 110 109 109 109 108 107 106 105 104 104 103 103 103
95 97 99 100 101 103 105 107 109 111 113 114 115 115 115 114 114 113 113 112 112 112 112 112 112 111 111 110 109 109 109 108 108 107 105 104 104 103 103 102 102 102
98 99 101 103 104 106 108 110 112 113 114 115 115 115 114 114 113 113 112 112 111 111 111 111 110 109 109 108 108 108 107 107 106 105 104 103 102 102 101 101 101 101
101 102 104 106 108 109 111 113 114 115 115 115 114 114 113 113 112 112 111 111 110 110 109 108 108 107 107 107 107 107 106 105 104 103 102 101 100 100 100 100 100 100
104 105 107 109 111 113 114 115 116 115 115 114 113 112 112 112 111 111 110 110 109 108 107 107 106 106 106 106 105 105 103 102 101 100 100 99 99 99 99 99 99 98
107 109 111 113 114 116 116 116 116 115 114 112 112 111 111 110 110 109 109 108 107 106 106 106 106 105 105 104 104 102 101 100 99 99 98 97 97 97 97 97 97 96
110 112 114 116 117 117 117 116 115 113 112 111 111 110 109 109 108 108 107 106 105 105 105 105 104 104 103 103 101 100 99 98 97 97 96 96 95 95 95 95 94 94
114 115 116 117 117 116 115 114 113 112 111 110 109 109 108 107 107 106 105 104 104 104 104 103 103 102 102 101 99 98 97 96 95 95 94 93 93 92 92 92 92 92
116 117 117 116 115 114 113 112 111 110 110 109 108 107 106 106 105 104 104 103 103 103 102 101 101 100 100 98 97 96 95 94 92 92 91 91 90 89 89 89 89 89
116 116 115 114 113 112 111 110 109 109 108 107 106 106 105 104 104 103 102 102 101 101 100 99 98 98 97 96 95 94 93 91 89 88 87 87 87 86 86 86 87 86
115 114 113 112 111 110 109 108 107 106 106 105 105 104 103 102 102 101 100 100 99 98 97 96 96 95 95 94 93 92 90 88 85 84 83 83 83 83 83 83 84 83
112 111 110 109 109 108 107 106 105 105 104 103 103 102 101 100 99 98 98 97 96 95 94 94 93 93 93 92 90 88 86 84 82 81 80 80 80 80 80 80 80 80
110 109 108 107 106 105 105 104 103 103 102 102 101 99 98 97 96 95 94 93 93 92 91 91 91 91 90 88 86 84 82 80 79 78 78 78 79 79 79 79 79 79
108 107 106 105 104 104 103 102 102 101 100 99 98 96 95 94 93 92 91 90 90 89 89 88 88 88 87 85 83 81 80 79 78 78 78 78 79 79 79 78 79 80
105 104 104 103 103 103 102 101 99 98 97 96 94 93 92 90 89 88 88 87 87 87 86 85 84 84 84 83 81 80 79 78 77 77 78 78 78 78 78 78 79 79
Wind_Direction
286 286 286 285 284 284 284 284 284 284 284 284 283 283 283 283 284 284 284 284 284 284 283 283 283 283 283 283 283 283 284 284 284 284 285 285 285 286 286 286 286 286
288 287 287 287 286 286 286 286 286 286 286 285 285 284 284 284 284 285 285 285 285 284 284 284 284 284 284 284 284 284 284 284 284 284 284 285 285 285 286 286 286 286
289 289 288 288 287 287 287 287 287 287 287 286 286 285 285 285 285 285 284 284 285 285 285 285 285 285 284 284 284 284 284 284 284 284 284 285 285 285 285 286 286 286
291 290 289 289 288 288 288 288 288 288 288 287 287 286 286 286 285 285 285 285 285 285 285 285 285 285 285 285 284 284 284 284 284 284 284 285 285 285 285 285 285 285
292 291 291 291 290 290 290 290 290 289 289 289 289 289 288 288 287 287 286 286 286 286 286 286 286 286 285 285 285 285 285 285 285 285 285 285 285 285 285 285 284 284
292 292 292 291 291 292 292 292 291 291 291 291 291 291 290 289 289 289 288 288 287 287 287 287 286 286 286 286 286 286 286 286 285 285 285 285 285 285 285 284 284 284
292 292 292 292 292 292 292 292 292 292 292 292 292 292 292 291 291 291 290 290 289 289 288 288 288 288 288 288 287 287 287 286 286 286 285 285 285 285 285 284 284 284
293 292 292 292 292 292 292 292 292 292 292 292 293 293 293 293 293 292 292 291 291 290 290 290 289 289 289 289 288 288 287 287 287 286 286 285 285 285 285 285 284 284
293 293 292 292 292 292 292 292 292 292 293 293 293 293 294 294 294 293 293 293 292 292 292 291 291 290 290 289 289 289 288 288 288 287 286 286 286 286 286 285 285 284
292 292 292 292 292 292 292 293 293 293 294 294 294 294 295 295 294 294 294 294 293 293 292 292 292 291 291 290 290 290 289 289 288 288 287 287 287 287 287 286 285 285
291 291 291 292 292 292 293 293 294 294 295 295 295 295 295 295 295 295 294 294 294 294 293 293 292 292 291 291 291 290 290 289 289 288 288 288 288 288 288 287 286 285
291 291 291 292 292 293 294 294 294 295 295 296 296 296 296 296 295 295 295 295 294 294 293 293 292 292 292 291 291 291 290 289 289 289 289 289 289 289 288 287 287 286
291 292 292 292 293 293 294 294 295 295 296 296 296 296 296 296 296 295 295 295 294 294 293 293 292 292 292 291 291 291 290 290 290 290 290 290 290 289 289 288 288 287
292 292 292 293 293 294 294 295 296 296 297 297 297 297 296 296 296 295 295 294 294 293 293 292 292 292 292 292 291 291 291 291 291 291 291 290 290 290 290 289 288 288
293 293 293 294 294 295 295 296 297 297 297 297 297 297 296 296 295 295 295 294 294 293 293 293 293 292 292 292 291 291 291 291 291 291 291 291 291 290 290 289 289 288
294 294 295 295 296 296 297 297 298 297 297 297 297 296 296 296 295 295 295 294 294 294 293 293 293 293 293 292 292 291 291 292 292 292 291 291 291 290 290 289 288 287
295 295 296 297 297 298 298 298 298 297 297 297 296 296 296 295 295 295 294 294 294 294 294 294 293 293 293 292 292 292 292 292 292 292 291 291 290 290 289 288 287 287
296 297 297 298 298 298 298 298 298 297 297 297 296 296 296 295 295 295 295 295 295 294 294 294 293 293 293 292 292 292 293 292 292 291 291 290 290 289 288 287 287 286
297 298 298 298 298 298 298 298 297 297 297 296 296 296 296 295 295 295 295 295 295 294 294 294 294 293 293 293 293 293 292 292 291 291 290 290 289 288 288 287 287 286
298 298 298 298 298 298 298 297 297 297 297 297 296 296 296 296 296 296 296 295 295 294 294 294 294 293 293 293 293 292 292 291 291 291 290 290 289 288 288 287 286 286
298 298 298 298 298 298 298 297 297 297 297 297 296 296 296 296 296 296 295 295 295 294 294 294 294 293 293 292 292 291 291 291 291 290 290 289 289 288 288 287 287 287
298 298 298 298 298 297 297 297 297 297 297 296 296 296 296 296 296 296 295 295 294 294 294 294 293 293 292 292 292 291 291 291 291 291 290 289 288 288 287 287 287 288
299 299 298 298 297 297 297 297 297 297 297 297 297 296 296 296 295 295 295 295 294 294 294 293 293 292 292 292 292 291 291 292 291 291 290 289 288 287 287 288 288 288
299 298 298 298 297 297 297 297 297 297 297 297 297 296 296 296 295 295 295 294 294 294 293 293 293 292 292 291 292 292 292 292 291 291 290 289 289 288 288 288 288 288
298 298 298 298 298 298 297 297 297 297 297 297 296 296 296 295 295 295 294 294 294 294 293 293 292 292 292 292 292 292 292 292 291 291 290 290 289 289 289 289 288 288
298 298 298 298 298 298 298 298 298 297 297 297 296 296 296 295 295 295 294 294 294 294 293 293 292 292 292 292 293 293 292 292 292 291 291 290 290 290 290 290 289 289
Height
10323 10318 10314 10311 10308 10304 10299 10295 10292 10291 10291 10289 10286 10283 10279 10274 10269 10264 10260 10254 10248 10243 10239 10237 10234 10231 10227 10223 10219 10216 10212 10207 10201 10195 10189 10183 10179 10174 10170 10165 10160 10155
10313 10308 10303 10299 10296 10292 10287 10283 10281 10279 10276 10274 10271 10269 10266 10262 10259 10254 10249 10242 10235 10229 10224 10221 10218 10215 10211 10207 10202 10199 10195 10190 10184 10178 10172 10166 10161 10157 10153 10147 10142 10137
10302 10297 10292 10288 10284 10280 10276 10272 10269 10266 10262 10259 10257 10255 10252 10250 10247 10243 10238 10231 10224 10216 10210 10205 10202 10198 10194 10190 10185 10181 10177 10172 10167 10160 10155 10149 10144 10140 10136 10130 10125 10119
10291 10286 10281 10277 10273 10269 10264 10261 10258 10253 10248 10245 10243 10240 10238 10236 10233 10230 10225 10220 10212 10204 10197 10191 10186 10181 10177 10172 10167 10163 10158 10153 10148 10142 10136 10131 10127 10122 10119 10114 10109 10102
10280 10275 10271 10266 10262 10257 10253 10250 10245 10240 10235 10232 10228 10225 10223 10220 10218 10215 10211 10205 10198 10191 10184 10177 10171 10165 10159 10154 10148 10144 10139 10133 10128 10123 10118 10113 10108 10104 10101 10098 10093 10086
10269 10265 10261 10256 10251 10246 10242 10238 10232 10226 10222 10218 10213 10209 10206 10202 10200 10197 10193 10187 10181 10174 10167 10161 10155 10148 10141 10135 10129 10124 10119 10113 10108 10103 10099 10095 10090 10086 10084 10080 10076 10070
10257 10254 10249 10245 10241 10236 10232 10226 10219 10214 10209 10204 10199 10194 10188 10184 10181 10178 10173 10168 10161 10155 10149 10143 10137 10130 10124 10118 10111 10105 10099 10094 10089 10084 10080 10076 10071 10069 10067 10063 10058 10053
10245 10241 10237 10233 10229 10225 10220 10214 10208 10202 10196 10191 10186 10180 10173 10168 10163 10158 10153 10147 10141 10135 10129 10123 10117 10111 10105 10099 10093 10086 10080 10075 10070 10065 10061 10057 10054 10052 10049 10045 10041 10036
10232 10228 10224 10220 10216 10211 10206 10201 10194 10188 10182 10177 10171 10165 10158 10152 10146 10139 10133 10127 10121 10115 10109 10103 10098 10091 10085 10080 10074 10068 10062 10057 10051 10046 10041 10038 10035 10033 10030 10027 10023 10017
10220 10215 10211 10207 10203 10198 10192 10186 10180 10174 10168 10162 10155 10148 10142 10136 10129 10121 10114 10108 10103 10096 10090 10084 10078 10072 10065 10060 10055 10050 10044 10038 10032 10026 10022 10019 10017 10015 10011 10007 10003 9997
10207 10203 10198 10194 10189 10184 10178 10172 10165 10159 10152 10146 10139 10131 10125 10118 10111 10103 10096 10090 10084 10077 10071 10066 10059 10053 10047 10042 10037 10031 10026 10020 10014 10008 10005 10002 9999 9996 9992 9987 9982 9977
10194 10189 10185 10180 10175 10170 10164 10157 10150 10144 10137 10130 10123 10115 10108 10101 10093 10086 10079 10073 10066 10059 10053 10047 10041 10035 10029 10024 10019 10013 10007 10001 9996 9991 9988 9985 9981 9977 9972 9967 9962 9957
10181 10176 10170 10165 10161 10155 10149 10142 10136 10129 10122 10114 10106 10098 10091 10084 10076 10069 10062 10055 10049 10042 10035 10029 10023 10018 10012 10006 10001 9995 9989 9983 9979 9975 9972 9968 9963 9958 9953 9948 9944 9938
10167 10161 10156 10150 10145 10139 10133 10127 10120 10113 10106 10098 10090 10081 10074 10066 10059 10052 10045 10039 10032 10025 10018 10012 10006 10001 9995 9989 9983 9977 9971 9967 9963 9959 9955 9950 9946 9941 9935 9930 9925 9920
10152 10146 10140 10134 10128 10122 10116 10109 10102 10095 10088 10081 10073 10064 10057 10049 10042 10035 10029 10022 10015 10008 10002 9996 9990 9984 9978 9972 9966 9960 9955 9952 9948 9943 9939 9934 9929 9924 9919 9913 9908 9902
10136 10129 10123 10117 10110 10104 10097 10090 10084 10076 10069 10062 10055 10047 10039 10032 10025 10019 10012 10005 9998 9992 9985 9979 9973 9967 9961 9955 9949 9944 9940 9936 9932 9927 9923 9918 9913 9908 9903 9897 9891 9886
10119 10113 10106 10099 10092 10085 10079 10072 10065 10057 10050 10044 10037 10029 10022 10015 10008 10002 9995 9989 9982 9975 9969 9963 9957 9951 9944 9938 9933 9928 9925 9921 9917 9912 9907 9903 9898 9893 9887 9881 9876 9871
10103 10096 10089 10082 10074 10067 10060 10053 10046 10039 10032 10025 10019 10012 10005 9998 9991 9985 9978 9972 9965 9959 9952 9946 9940 9934 9927 9921 9917 9913 9910 9906 9901 9897 9893 9888 9883 9877 9871 9866 9861 9855
10086 10079 10072 10065 10057 10049 10042 10035 10027 10021 10014 10007 10001 9994 9987 9981 9974 9968 9962 9955 9949 9942 9936 9930 9924 9917 9910 9905 9902 9898 9895 9892 9887 9882 9878 9874 9868 9863 9856 9851 9845 9840
10068 10061 10054 10047 10039 10031 10024 10017 10010 10003 9996 9990 9983 9976 9970 9963 9957 9951 9945 9939 9932 9925 9919 9914 9908 9901 9895 9891 9887 9883 9879 9877 9875 9869 9863 9858 9853 9847 9842 9836 9830 9826
10049 10042 10035 10028 10020 10013 10006 9999 9992 9986 9979 9973 9966 9959 9953 9947 9941 9935 9929 9922 9916 9909 9904 9899 9892 9886 9881 9876 9872 9868 9864 9862 9861 9857 9851 9844 9839 9833 9827 9821 9815 9812
10031 10024 10017 10010 10003 9996 9989 9982 9975 9969 9963 9956 9949 9943 9938 9932 9925 9919 9913 9907 9901 9894 9889 9884 9878 9871 9866 9862 9858 9854 9851 9848 9846 9843 9838 9832 9826 9820 9814 9809 9803 9799
10013 10006 9999 9992 9986 9979 9972 9966 9959 9953 9946 9940 9934 9928 9923 9916 9910 9904 9898 9892 9886 9881 9875 9869 9863 9856 9851 9847 9844 9840 9838 9835 9832 9828 9824 9819 9813 9807 9803 9799 9795 9790
9995 9988 9982 9975 9968 9962 9955 9949 9943 9937 9930 9924 9918 9913 9908 9901 9895 9890 9884 9878 9872 9866 9861 9855 9849 9842 9836 9833 9831 9827 9825 9822 9818 9814 9810 9805 9799 9795 9791 9787 9783 9779
9977 9971 9965 9958 9951 9945 9939 9933 9927 9921 9914 9908 9903 9898 9892 9886 9881 9876 9870 9864 9858 9852 9846 9841 9835 9828 9823 9819 9817 9815 9812 9809 9805 9801 9796 9791 9787 9782 9779 9775 9770 9765
9961 9954 9948 9941 9935 9928 9922 9917 9911 9905 9899 9893 9888 9883 9878 9872 9867 9862 9856 9850 9844 9838 9832 9827 9822 9816 9810 9806 9804 9801 9798 9796 9793 9788 9783 9779 9774 9770 9766 9762 9756 9751